Location: ????????
(55.4000°N, 39.1167°E)
Time: 03:28:51
(UTC+00:00)

Cosmos 1302 Rocket - Pass Details

Date: 19 May 2025
Orbit: 752 x 772 km, 74.0° (Epoch: 19 June)

Event Time Altitude Azimuth Distance (km) Brightness Sun altitude
Rises 22:51:04 0° 331° (NNW) 3,226 7.8 -12.2°
Reaches altitude 10° 22:53:26 10° 332° (NNW) 2,300 7.0 -12.0°
Maximum altitude 22:58:40 88° 244° (WSW) 769 4.0 -11.8°
Drops below altitude 10° 23:03:54 10° 155° (SSE) 2,297 6.1 -11.5°
Enters shadow 23:05:51 - 155° (SSE) 3,064 6.7 -11.3°
